Location: ??????????
(54.7560°N, 39.1389°E)
Time: 11:41:24
(UTC+00:00)

USA 234 - Pass Details

Date: 19 May 2025
Orbit: 1097 x 1111 km, 123.0° (Epoch: 11 June)

Event Time Altitude Azimuth Distance (km) Brightness Sun altitude
Rises 20:42:13 0° 73° (ENE) 3,920 6.3 -14.8°
Reaches altitude 10° 20:44:42 10° 73° (ENE) 2,963 5.6 -14.9°
Maximum altitude 20:51:15 81° 347° (NNW) 1,123 3.4 -15.0°
Drops below altitude 10° 20:57:49 10° 262° (W) 2,969 5.5 -15.1°
Sets 21:00:18 0° 262° (W) 3,928 6.1 -15.2°
